Regional Weather Roundup
Issued by NWS Charleston, SC

Current Version | Previous Version | Graphics & Text | Print | Product List | Glossary On
Versions: 1 2 3 4 5 6 7 8 9 10 11 12 13 14 15 16 17 18 19 20 21 22 23 24 25 26 27 28 29 30 31 32 33 34 35 36 37 38 39 40 41 42 43 44 45 46 47 48 49 50
000
ASUS42 KCHS 172310
RWRCHS

REGIONAL WEATHER ROUNDUP
NATIONAL WEATHER SERVICE CHARLESTON SC
600 PM EST WED DEC 17 2014

NOTE: "FAIR" INDICATES FEW OR NO CLOUDS BELOW 12,000 FEET WITH NO
SIGNIFICANT WEATHER AND/OR OBSTRUCTIONS TO VISIBILITY.

NOT ALL STATIONS ARE QUALITY CONTROLLED BY THE NATIONAL
WEATHER SERVICE. USE DATA WITH CAUTION...ESPECIALLY
DEWPOINT OBSERVATIONS.

SCZ027-030-031-034>040-042>050-180000-
...SOUTHEAST SOUTH CAROLINA...

CITY           SKY/WX    TMP DP  RH WIND       PRES   REMARKS
N CHARLESTON   PTCLDY    50  41  71 S6        30.09R
WATERFRONT PRK   N/A     54 N/A N/A SW5         N/A
MOUNT PLEASANT FAIR      50  45  81 CALM      30.09S
PINOPOLIS        N/A     57  46  67 CALM      29.99F
MONCKS CORNER  FAIR      52  46  82 CALM      30.08S
SUMMERVILLE    NOT AVBL
BEAUFORT MCAS  MOCLDY    54  46  74 CALM      30.10R
BEAUFORT ARPT  FAIR      52  45  76 S5        30.09S
HILTON HEAD IS CLEAR     54  46  76 CALM      30.11S
WALTERBORO     CLEAR     52  41  66 CALM      30.10R
ALLENDALE      FAIR      52  43  71 CALM      30.09R

...SOUTHERN MIDLANDS AND PEE DEE...

CITY           SKY/WX    TMP DP  RH WIND       PRES   REMARKS
GEORGETOWN     NOT AVBL
KINGSTREE      NOT AVBL
ORANGEBURG     PTCLDY    53  39  59 CALM      30.09R
BARNWELL       FAIR      50  45  81 CALM      30.11R
AIKEN          FAIR      52  41  66 CALM      30.13R
MANNING        NOT AVBL
COLUMBIA       PTCLDY    51  41  68 CALM      30.09R
SUMTER         CLEAR     54  38  54 W5        30.07R
FLORENCE       CLEAR     53  39  59 CALM      30.08R
MYRTLE BEACH   CLEAR     54  45  71 SW7       30.09R
N MYRTLE BEACH CLEAR     50  45  83 SW7       30.08R

$$

GAZ063-065-086>088-099>101-113>116-118-119-134>141-150-180000-
...SOUTHEAST GEORGIA...

CITY           SKY/WX    TMP DP  RH WIND       PRES   REMARKS
SAVANNAH ARPT  MOCLDY    56  41  57 W3        30.10R
HUNTER AAF     PTCLDY    54  43  66 W3        30.08R
FORT STEWART   MOCLDY    53  44  71 CALM      30.10R
STATESBORO     PTCLDY    48  44  85 CALM      30.10R
SYLVANIA       PTCLDY    51  46  83 CALM      30.11R
CLAXTON        FAIR      50  46  87 CALM      30.11R

...CSRA...CENTRAL AND FAR SOUTHEAST GEORGIA...

CITY           SKY/WX    TMP DP  RH WIND       PRES   REMARKS
THOMSON        PTCLDY    52  45  77 CALM      30.16R
AUGUSTA-BUSH   CLEAR     50  39  66 W5        30.10R
AUGUSTA-DANIEL CLEAR     58  40  51 NW5       30.11R
SWAINSBORO     FAIR      52  46  82 CALM      30.11S
VIDALIA        PTCLDY    54  43  66 CALM      30.11S
EASTMAN        FAIR      52  43  72 CALM      30.14S
HAZLEHURST     FAIR      54  46  74 CALM      30.10S
ALMA           PTCLDY    51  42  71 CALM      30.11R
WAYCROSS       MOCLDY    55  47  75 CALM      30.12R
JESUP          FAIR      54  48  82 CALM      30.11R
BAXLEY         FAIR      54  45  71 CALM      30.11R
BRUNSWICK      MOCLDY    54  43  66 CALM      30.13R
SAINT SIMONS   MOCLDY    55  44  66 SW5       30.11R

$$

SCZ027-028-034-036>038-045-046-048>050-GAZ119-141-180000-
...LAKE AND SUPPLEMENTAL COASTAL OBSERVATIONS...

STATION/POSITION TIME  TEMP    WIND        PRES    WAVE   SWELL
                       AIR SEA DIR/SP/G            HT/PER HT/PER/DIR
                 (UTC) (F)     (DEG/KT/KT) (MB)    (FT/S) (FT/S/D)
UPR LAKE MARION  NOT AVBL
WINYAH BAY       2200   56     180/  5     1017.0S
LAKE MURRAY      2200   56      CALM  /  2 1017.9F
ACE BASIN NERRS  2200   57        CALM     1018.0S
FORT PULASKI     2300   53 57   CALM  /  1 1019.4S
SAPELO ISLAND    2200   59     210/  2     1019.0S

$$

ANZ835-935-AMZ111-154-330-350-352-354-370-450-454-472-180000-
...C-MAN AND BUOY OBSERVATIONS...

STATION/POSITION TIME  TEMP    WIND        PRES    WAVE   SWELL
                       AIR SEA DIR/SP/G            HT/PER HT/PER/DIR
                 (UTC) (F)     (DEG/KT/KT) (MB)    (FT/S) (FT/S/D)
BUOY 41004       2300   60 73  270/  6/  8 1018.9R   2/ 4   2/ 4
BUOY 41008       2300   56 58  180/  8/  8 1019.3R   1/11   2/110/11
FOLLY BEACH CMAN 2300   55     200/  6/  8 1019.4R
CAPERS NEARSHORE 2200   55     210/  8/ 10   N/A
FRIPP NEARSHORE  NOT AVBL


STATION/POSITION TIME  TEMP    WIND        PRES    WAVE   SWELL
                       AIR SEA DIR/SP/G            HT/PER HT/PER/DIR
                 (UTC) (F)     (DEG/KT/KT) (MB)    (FT/S) (FT/S/D)
5E ST. MARYS GA  2300      61                N/A     1/11
FRYING PAN BUOY  2300   58 67  250/ 12/ 14 1019.2R   2/ 6   2/170/ 6
BUOY 41025       2300   57                 1017.2R   3/ 8
CAPE LOOKOUT NC  2300   55     230/  8/ 11 1017.4R
BUOY 41002       2237   67 73  300/  6/ 10 1018.4R   6/ 8   5/260/ 8
BUOY 41010       2300   71 76  290/ 10/ 16 1019.6R   3/ 6   3/280/ 6
ST AUGUSTINE FL  2300   60      40/  4/  4 1020.3S


$$


USA.gov is the U.S. government's official web portal to all federal, state and local government web resources and services.